Temperature
9 8 7 8 8 9 9 9 9 9 10 10 9 9 10 10 10 10 11 11 11 11 12 12 11 11 11 11 11 11 11 11 11 11 10 10 10 10 10 10 10 10 10 10
8 8 9 9 9 9 9 9 9 9 10 10 9 9 9 10 10 10 10 11 11 11 11 11 11 11 11 11 11 10 10 10 10 10 10 10 10 10 10 10 10 10 10 10
8 9 9 9 9 9 9 8 8 8 9 9 8 8 8 9 10 10 11 11 11 11 11 11 11 11 11 11 10 10 10 10 10 10 10 10 9 9 9 10 10 10 10 10
8 9 9 9 9 9 8 9 9 9 8 7 8 7 8 8 9 9 9 10 10 11 11 11 11 10 10 10 10 10 10 10 10 10 9 9 9 9 9 9 9 9 9 9
8 8 9 8 9 9 8 9 9 8 7 7 7 7 7 7 8 8 8 9 10 10 10 10 10 10 10 10 10 10 10 10 10 9 9 9 9 9 9 9 9 9 9 9
8 8 9 9 9 9 9 9 8 7 6 7 7 6 7 7 8 8 8 9 9 10 10 10 10 10 10 10 9 9 9 9 9 9 9 9 9 9 9 9 8 8 8 8
7 8 8 8 8 8 8 7 7 7 6 7 7 7 7 7 8 8 8 8 9 9 9 9 9 9 9 9 9 9 9 9 9 9 8 8 8 8 8 8 8 8 8 8
6 6 7 7 8 7 7 7 7 7 7 6 7 7 7 7 8 8 8 9 9 9 9 9 9 9 9 9 9 9 9 9 9 8 8 8 8 8 8 8 8 8 8 8
5 6 7 7 8 7 7 6 7 6 6 6 6 6 6 7 7 7 7 8 8 8 8 9 9 9 9 9 9 8 8 8 8 8 8 8 8 8 8 8 7 7 8 7
5 5 6 7 7 7 7 6 5 6 6 6 6 6 6 7 7 6 6 6 7 8 8 8 8 8 8 8 8 8 8 8 8 8 8 7 7 7 7 7 7 7 7 7
4 4 5 5 6 6 6 6 6 5 5 6 6 6 7 7 7 6 6 7 7 7 8 8 8 8 8 8 8 8 8 8 7 7 7 7 7 7 7 7 7 7 6 6
4 3 3 4 5 6 6 5 5 5 5 4 4 6 7 6 6 6 6 7 7 7 7 7 7 7 7 7 7 7 7 7 7 7 7 7 7 6 6 6 6 6 6 6
3 3 3 4 5 4 5 5 5 5 4 3 4 6 6 5 5 6 6 6 7 7 7 7 7 7 7 7 7 7 7 7 7 6 6 6 6 6 6 6 6 6 6 6
4 2 3 4 4 4 3 4 4 4 3 3 4 5 6 5 5 5 5 6 6 6 6 6 6 6 6 6 6 6 6 6 6 6 6 6 6 6 6 5 5 5 5 5
2 1 2 3 4 4 4 4 4 4 4 4 4 5 6 5 5 5 5 5 5 5 5 5 5 5 5 5 6 6 6 6 5 5 5 5 5 5 5 5 5 5 5 5
1 1 1 2 3 3 3 4 4 4 4 4 5 5 5 5 5 4 5 5 4 4 5 5 5 5 5 5 5 5 5 5 5 5 5 5 5 5 5 5 5 4 4 5
0 0 1 1 2 2 2 3 3 3 4 4 4 5 4 4 4 4 4 4 4 4 4 4 4 4 5 5 4 4 4 4 4 4 4 4 4 4 4 4 4 4 4 4
-0 -0 -0 0 1 1 3 3 3 3 3 3 3 4 4 4 4 4 4 4 4 4 4 4 4 4 4 4 4 4 4 4 4 4 4 4 4 4 4 4 4 4 4 3
0 0 -0 -0 0 1 2 2 2 2 3 3 3 3 3 3 3 3 4 4 4 4 4 4 4 3 3 3 3 3 3 3 3 3 3 3 3 3 3 3 3 3 3 3
-0 -0 -0 -0 0 1 2 2 2 2 2 2 2 2 2 2 2 2 3 3 3 3 3 3 3 3 3 3 3 3 3 3 2 2 3 3 3 3 3 3 3 3 3 3
-1 -1 -1 -1 -0 0 1 1 2 2 2 2 2 2 2 2 2 3 2 2 3 3 3 2 2 2 2 2 2 2 2 2 2 2 2 2 2 2 2 2 2 2 2 2
-1 -1 -1 -1 -1 -0 0 0 1 1 1 1 1 1 1 1 1 1 1 1 2 2 2 2 2 2 2 2 2 2 1 1 1 1 1 1 1 1 1 1 1 1 1 1
-1 -1 -1 -1 -1 -1 -1 -1 -0 0 -0 -0 0 1 1 0 -0 -0 -0 0 0 1 1 1 1 1 1 1 1 1 1 1 1 1 1 1 1 1 1 1 1 1 1 1
-3 -2 -2 -2 -2 -2 -1 -1 -1 -1 -1 -0 -0 -0 -0 -1 -1 -1 -1 -1 -1 -0 -0 -0 -0 0 0 0 0 0 0 0 0 0 0 0 0 0 0 0 0 0 0 0
-4 -3 -3 -3 -2 -2 -2 -2 -2 -1 -1 -1 -1 -1 -1 -1 -2 -2 -2 -2 -1 -1 -1 -1 -1 -1 -1 -1 -1 -1 -1 -1 -1 -1 -1 -1 -1 -1 -0 -0 -0 -0 -0 -0
-4 -4 -4 -3 -3 -3 -3 -3 -3 -2 -2 -2 -2 -2 -2 -2 -2 -2 -2 -2 -2 -2 -2 -2 -2 -2 -2 -2 -2 -2 -2 -1 -1 -2 -2 -2 -1 -1 -1 -1 -1 -1 -1 -1
Wind_Speed
4 4 10 13 13 7 5 5 7 6 4 4 9 13 13 9 7 9 9 9 9 10 8 6 6 6 6 5 6 6 6 6 6 4 4 3 2 2 1 2 2 3 4 5
3 11 13 7 8 8 7 8 8 7 4 5 8 13 11 10 9 9 11 11 11 8 6 6 6 6 6 7 6 6 7 7 7 5 5 3 3 2 2 2 2 3 4 4
12 7 7 8 8 9 11 11 9 7 6 4 5 9 7 6 6 7 8 8 8 10 9 8 7 7 7 7 8 7 7 7 7 6 4 4 2 2 1 1 1 1 3 4
11 9 6 8 10 10 12 9 8 7 4 5 2 6 7 6 7 8 7 6 7 7 7 7 8 8 8 8 7 7 7 7 7 7 7 7 5 4 4 3 2 2 2 3
8 7 8 10 11 11 7 5 7 6 5 6 5 5 8 4 7 9 7 6 6 6 7 7 8 8 8 7 7 7 7 7 7 7 8 8 6 4 3 3 3 2 1 2
9 5 8 9 6 8 5 2 1 1 2 8 9 8 7 5 7 6 6 5 5 4 5 5 5 5 5 5 6 6 7 7 7 7 7 8 8 6 5 4 4 3 2 2
8 7 4 3 4 3 4 4 1 2 4 8 5 7 8 6 6 7 7 6 5 4 4 4 4 5 5 6 6 7 8 7 7 7 8 8 8 8 8 6 6 4 3 3
6 7 7 5 7 7 9 9 7 6 6 4 3 8 6 5 4 3 3 3 3 3 4 4 5 6 6 6 6 7 7 7 7 8 8 7 7 6 5 6 5 5 5 4
5 6 2 5 4 7 6 8 6 4 2 4 6 6 5 2 1 1 1 1 2 3 4 4 4 5 5 5 6 7 8 6 7 7 7 7 7 7 7 6 5 4 4 4
3 5 4 3 1 4 5 6 4 5 5 6 6 6 5 3 3 3 3 3 4 3 3 3 4 4 4 5 5 5 6 6 6 6 7 6 7 7 7 6 6 6 5 5
2 3 3 1 7 9 5 5 5 5 4 5 5 6 5 7 6 5 5 4 4 3 3 3 3 4 4 3 3 4 5 5 5 6 6 6 6 6 6 6 7 7 6 6
2 2 4 7 5 5 7 8 7 6 5 5 4 6 2 3 4 4 3 3 2 2 3 2 2 2 2 3 3 3 4 4 5 5 5 5 5 5 6 6 6 6 6 6
2 2 2 3 2 0 3 4 6 4 3 5 6 7 2 2 1 1 2 1 1 1 1 1 2 2 2 2 3 3 4 4 4 4 5 5 5 6 6 6 5 5 6 5
1 3 7 9 6 4 5 6 5 5 6 7 9 9 6 3 3 2 1 1 1 1 2 2 1 2 2 2 3 3 3 3 3 4 4 5 6 7 6 6 5 6 6 6
3 5 7 9 8 7 8 9 10 11 11 10 10 11 11 8 7 5 3 2 1 1 2 2 2 3 2 2 2 2 2 2 2 3 4 4 4 4 4 5 5 5 5 5
2 4 4 7 8 8 10 11 11 13 12 12 11 12 8 5 4 3 4 3 3 2 2 2 2 2 3 2 2 2 1 1 2 2 3 3 3 3 4 5 5 5 4 4
4 4 3 6 5 4 9 10 10 8 7 8 12 11 5 4 6 7 6 4 4 4 3 3 3 3 3 2 2 2 2 1 2 2 2 2 3 3 4 4 4 4 4 4
7 5 3 3 2 8 7 3 5 7 8 7 7 7 7 7 5 4 4 4 3 3 3 2 2 2 2 2 1 2 2 2 2 1 1 2 3 3 3 4 4 3 3 4
8 7 4 3 6 8 5 3 3 6 9 6 7 6 4 3 1 3 3 3 4 3 2 2 2 1 1 2 2 2 2 2 2 2 2 2 3 3 3 3 3 2 2 3
3 5 4 4 5 6 5 5 5 3 6 4 4 4 3 2 3 5 3 1 1 1 1 1 1 1 2 1 2 3 2 2 2 3 2 2 2 3 3 3 3 2 2 2
1 2 4 5 6 6 5 6 2 3 5 4 3 3 3 4 5 3 1 1 1 2 1 1 2 2 1 1 2 2 2 2 2 2 2 1 2 2 2 1 1 2 2 2
4 3 4 4 5 6 4 2 1 4 4 4 3 2 1 1 2 3 3 2 2 2 2 2 2 1 1 2 2 2 0 1 0 1 2 1 1 1 1 1 1 2 2 2
2 3 3 4 3 3 2 2 3 3 4 5 4 3 2 3 3 3 3 3 2 2 2 2 2 2 2 1 2 2 0 1 1 1 1 1 1 0 1 2 2 2 2 2
4 3 1 1 3 4 4 5 5 4 3 4 4 4 3 3 3 3 3 3 3 3 3 3 3 3 3 3 2 1 0 1 2 1 1 1 1 1 0 1 1 2 2 2
3 2 2 3 3 4 5 5 5 5 5 5 6 5 4 4 3 3 3 3 3 4 4 3 3 3 3 3 3 3 2 2 2 1 1 1 1 0 1 1 1 2 2 3
3 3 3 4 3 2 4 5 4 4 4 4 4 5 5 4 4 4 3 3 3 4 4 4 4 3 3 4 4 4 3 2 2 1 1 1 0 0 0 1 2 3 2 3
Wind_Direction
181 178 211 210 206 210 197 216 242 248 241 237 248 259 265 263 235 233 237 235 227 227 226 204 191 184 177 176 179 180 173 173 163 159 159 161 172 163 146 144 149 149 146 147
174 227 226 210 208 220 230 244 256 277 272 250 265 270 265 254 241 232 231 233 229 224 216 202 188 181 182 184 185 184 184 180 177 178 176 174 172 174 170 164 140 152 149 148
210 228 208 206 211 217 230 228 235 252 308 298 295 292 266 252 241 241 236 228 223 213 208 201 192 190 186 188 188 188 188 185 184 176 160 144 122 108 134 156 167 164 155 153
228 234 215 214 218 207 237 224 223 234 258 273 232 283 269 246 255 249 243 229 223 216 202 196 193 192 193 198 192 186 185 184 183 176 169 165 167 176 193 185 183 176 166 164
227 210 211 220 220 202 223 197 208 220 221 261 238 242 275 248 247 251 240 229 226 214 198 194 196 195 196 194 189 186 181 181 181 180 179 177 179 184 170 161 163 177 182 187
238 227 214 219 218 206 199 149 195 192 193 252 225 206 267 230 226 236 235 231 227 214 199 196 195 185 191 189 187 184 182 185 182 181 180 181 180 173 163 169 175 184 188 205
252 243 226 196 200 206 162 140 191 261 228 244 201 202 248 244 225 212 221 227 226 213 198 193 184 184 189 189 189 186 186 188 185 183 187 190 186 177 180 183 185 184 187 201
226 247 218 207 198 197 200 181 188 211 224 262 219 223 247 254 245 220 215 216 213 209 203 199 195 191 193 194 189 186 190 192 188 188 195 195 187 184 188 189 186 190 194 199
214 245 240 212 199 171 182 203 199 174 222 245 248 261 293 286 318 314 272 233 222 216 207 203 194 188 189 190 192 192 192 193 194 193 193 195 192 192 192 190 187 193 196 193
195 249 256 235 150 199 183 167 152 182 203 238 253 243 230 226 229 246 238 228 234 235 219 210 197 189 189 190 191 190 190 194 198 195 196 198 199 199 194 188 189 195 198 189
205 219 270 222 199 201 181 189 187 187 202 201 238 253 217 203 205 213 227 222 213 207 209 206 196 190 183 179 182 185 192 191 197 199 201 201 201 200 195 193 196 194 192 186
211 188 245 244 253 224 194 195 181 191 221 206 222 259 265 207 199 197 205 218 212 201 197 188 177 166 171 180 189 197 196 195 202 200 198 201 196 194 196 198 197 188 188 188
174 171 272 306 288 300 217 205 194 188 174 198 213 254 300 351 338 206 183 187 193 163 152 156 145 169 201 209 209 208 208 206 204 198 194 194 193 193 196 200 197 191 189 191
182 200 215 229 242 223 247 247 221 196 210 225 228 248 271 275 271 266 228 183 161 152 145 156 180 199 211 220 215 212 213 204 191 186 189 195 199 199 197 195 194 194 191 192
152 221 241 260 265 248 249 244 228 224 221 224 237 239 251 236 234 239 239 218 175 176 177 185 199 220 219 217 218 211 208 198 175 173 186 201 202 195 187 187 191 189 192 196
183 222 245 271 264 259 262 251 239 236 233 237 248 255 253 242 229 232 233 219 228 232 225 214 204 211 218 212 212 203 196 198 169 172 193 198 190 188 189 190 188 188 194 196
203 195 216 254 262 283 256 236 232 232 226 220 239 249 238 241 230 227 227 217 228 241 234 224 218 221 219 209 195 196 197 174 162 169 180 188 184 187 194 190 185 194 194 189
192 194 210 241 221 238 248 212 221 232 243 234 239 250 235 229 235 241 219 208 231 244 238 233 230 224 221 196 184 182 165 155 159 159 166 179 179 188 191 181 188 199 190 186
200 194 202 209 235 262 279 286 241 228 252 242 238 253 258 225 312 296 253 219 230 244 235 224 208 193 178 168 172 158 157 156 159 174 188 192 180 180 180 182 188 191 181 183
202 196 201 212 228 244 264 286 284 220 258 270 245 241 242 190 233 257 255 243 225 177 148 146 123 108 124 151 141 142 159 164 189 202 202 191 179 177 185 193 190 180 176 186
162 202 213 225 241 264 292 311 10 190 267 307 284 258 224 219 239 230 170 105 123 119 113 119 121 124 144 134 123 138 158 201 221 190 161 159 177 186 190 183 174 169 172 167
197 204 210 207 233 261 329 27 182 271 322 335 329 318 293 14 66 85 94 93 99 94 80 99 104 76 61 110 121 121 176 275 91 131 136 143 163 189 164 155 176 166 166 167
226 228 212 204 230 311 351 341 324 344 355 355 2 5 85 100 94 88 78 71 67 83 83 82 98 66 31 43 114 123 340 73 99 109 121 120 78 86 155 174 187 172 167 178
320 344 356 293 306 327 348 357 5 9 10 13 29 39 58 86 86 80 78 69 56 56 59 61 74 66 30 23 40 52 7 85 100 103 82 78 83 39 59 175 190 186 187 194
304 328 321 286 301 334 348 354 3 17 30 38 35 33 39 59 56 57 59 54 54 51 49 59 64 55 31 27 24 11 18 55 68 54 33 28 45 15 345 345 272 235 219 211
309 272 259 263 283 283 308 333 354 14 15 20 31 29 27 43 49 47 44 44 53 52 50 51 49 39 25 27 21 11 16 45 70 41 12 354 351 354 5 11 358 355 310 290
Height
1494 1497 1495 1493 1493 1494 1496 1497 1497 1494 1490 1492 1490 1486 1481 1479 1479 1478 1477 1477 1477 1478 1480 1482 1483 1485 1486 1487 1488 1489 1490 1492 1494 1495 1496 1498 1500 1502 1504 1506 1507 1509 1511 1513
1494 1492 1486 1489 1491 1493 1494 1496 1495 1492 1489 1489 1488 1483 1477 1474 1473 1472 1472 1471 1472 1473 1475 1477 1479 1480 1481 1483 1484 1485 1487 1488 1490 1492 1494 1496 1497 1499 1501 1503 1504 1506 1508 1510
1486 1483 1483 1487 1488 1490 1490 1492 1492 1493 1490 1488 1488 1483 1476 1470 1469 1468 1467 1467 1467 1468 1469 1471 1473 1476 1477 1479 1480 1481 1483 1485 1487 1489 1491 1493 1495 1496 1498 1499 1501 1503 1505 1507
1483 1480 1481 1483 1484 1485 1487 1485 1488 1490 1494 1495 1491 1492 1476 1470 1467 1465 1463 1463 1463 1464 1466 1467 1469 1471 1473 1474 1477 1478 1480 1482 1484 1486 1487 1488 1490 1492 1494 1496 1498 1500 1502 1503
1478 1477 1478 1478 1477 1480 1481 1481 1484 1487 1491 1494 1491 1492 1478 1470 1467 1463 1460 1460 1460 1461 1462 1464 1465 1467 1469 1471 1473 1475 1477 1478 1480 1482 1483 1485 1487 1489 1491 1493 1495 1496 1498 1500
1474 1473 1473 1473 1473 1476 1478 1481 1484 1488 1492 1492 1484 1489 1477 1470 1462 1459 1457 1457 1457 1458 1459 1461 1462 1464 1466 1468 1470 1471 1473 1475 1477 1479 1480 1482 1484 1486 1488 1490 1491 1493 1495 1497
1474 1471 1470 1470 1473 1475 1477 1484 1491 1491 1491 1483 1477 1480 1471 1460 1456 1454 1454 1454 1455 1455 1456 1458 1459 1461 1462 1464 1466 1468 1470 1472 1473 1475 1477 1479 1481 1483 1485 1486 1488 1489 1491 1493
1475 1474 1468 1467 1469 1472 1474 1478 1485 1486 1484 1481 1476 1474 1463 1455 1452 1451 1452 1452 1453 1453 1454 1455 1456 1457 1459 1461 1463 1465 1466 1468 1470 1471 1473 1475 1477 1480 1482 1484 1485 1486 1488 1489
1475 1471 1464 1464 1464 1468 1472 1475 1474 1481 1482 1484 1476 1468 1460 1453 1451 1450 1451 1450 1450 1451 1451 1452 1454 1455 1456 1458 1459 1461 1463 1465 1466 1468 1470 1472 1474 1476 1478 1480 1482 1483 1485 1486
1473 1472 1466 1463 1464 1465 1467 1469 1477 1480 1480 1476 1470 1466 1460 1453 1452 1451 1450 1449 1449 1449 1450 1450 1451 1452 1454 1455 1457 1459 1460 1461 1463 1465 1467 1469 1470 1472 1474 1476 1478 1480 1481 1482
1471 1473 1469 1466 1464 1463 1467 1469 1470 1475 1476 1473 1470 1462 1448 1448 1447 1448 1447 1447 1447 1447 1448 1448 1449 1450 1452 1453 1454 1456 1457 1459 1460 1462 1464 1465 1467 1469 1471 1472 1474 1476 1477 1478
1470 1472 1472 1466 1460 1458 1460 1462 1466 1471 1473 1473 1473 1461 1444 1444 1443 1445 1446 1446 1446 1446 1446 1447 1447 1449 1450 1451 1452 1453 1454 1456 1457 1459 1460 1462 1463 1465 1467 1468 1470 1471 1473 1474
1468 1472 1473 1466 1464 1463 1461 1460 1461 1464 1469 1471 1470 1457 1444 1443 1443 1444 1444 1444 1444 1445 1445 1445 1446 1447 1448 1448 1449 1450 1451 1452 1454 1455 1457 1458 1460 1461 1463 1464 1465 1467 1468 1470
1464 1469 1470 1466 1460 1460 1461 1460 1460 1464 1466 1465 1459 1451 1446 1445 1444 1444 1444 1443 1443 1444 1444 1444 1444 1445 1445 1446 1447 1447 1448 1449 1450 1452 1453 1454 1455 1457 1459 1460 1461 1463 1464 1466
1463 1467 1464 1460 1456 1456 1455 1454 1454 1456 1455 1457 1449 1447 1442 1442 1442 1442 1442 1442 1442 1442 1442 1442 1442 1443 1443 1443 1444 1444 1445 1446 1447 1448 1449 1450 1452 1454 1455 1457 1458 1459 1460 1462
1462 1464 1462 1460 1455 1453 1451 1448 1448 1447 1447 1446 1443 1441 1437 1438 1439 1440 1440 1440 1440 1440 1440 1440 1440 1440 1440 1440 1441 1442 1442 1443 1444 1445 1446 1448 1449 1451 1452 1454 1455 1456 1457 1458
1462 1463 1463 1460 1455 1453 1450 1443 1443 1442 1440 1441 1439 1436 1435 1437 1437 1437 1437 1437 1438 1438 1438 1438 1438 1438 1438 1438 1438 1439 1440 1441 1441 1442 1443 1445 1446 1447 1449 1450 1452 1452 1454 1455
1458 1460 1462 1460 1458 1458 1439 1436 1436 1436 1435 1435 1434 1432 1431 1432 1433 1433 1434 1435 1435 1435 1435 1435 1435 1435 1436 1436 1436 1437 1438 1438 1439 1440 1441 1442 1444 1445 1446 1447 1448 1449 1450 1452
1450 1454 1458 1458 1454 1443 1437 1436 1436 1436 1432 1431 1430 1430 1430 1429 1430 1431 1431 1432 1432 1433 1432 1433 1433 1433 1434 1434 1434 1435 1435 1436 1437 1437 1438 1440 1441 1442 1443 1444 1445 1446 1447 1448
1447 1449 1453 1454 1451 1444 1436 1433 1430 1432 1431 1428 1427 1427 1427 1428 1431 1429 1429 1429 1429 1430 1430 1431 1431 1431 1432 1432 1432 1432 1433 1433 1434 1435 1437 1438 1439 1439 1440 1441 1442 1443 1444 1445
1450 1451 1451 1450 1448 1441 1436 1432 1430 1436 1431 1427 1425 1425 1425 1426 1425 1425 1426 1427 1427 1428 1429 1429 1429 1429 1430 1430 1430 1430 1430 1431 1433 1434 1434 1435 1436 1437 1438 1439 1440 1441 1441 1442
1447 1449 1448 1448 1448 1444 1436 1433 1434 1432 1429 1426 1424 1423 1424 1424 1423 1423 1424 1425 1426 1426 1427 1428 1428 1427 1428 1428 1428 1428 1429 1430 1431 1431 1432 1433 1434 1435 1435 1436 1437 1438 1438 1439
1444 1443 1442 1442 1443 1439 1436 1435 1433 1431 1428 1426 1425 1424 1424 1424 1424 1424 1424 1424 1425 1425 1426 1426 1426 1426 1427 1427 1427 1427 1428 1428 1429 1429 1430 1431 1432 1432 1433 1433 1434 1434 1435 1435
1444 1442 1442 1441 1439 1438 1437 1435 1433 1431 1429 1428 1426 1426 1425 1424 1424 1424 1424 1424 1424 1424 1425 1426 1426 1425 1426 1426 1426 1426 1427 1427 1427 1428 1428 1429 1429 1429 1430 1430 1431 1431 1431 1432
1446 1444 1443 1442 1440 1439 1437 1436 1433 1432 1430 1429 1428 1427 1426 1425 1425 1425 1424 1424 1424 1424 1425 1426 1426 1425 1425 1425 1425 1425 1426 1426 1426 1426 1426 1426 1427 1427 1427 1427 1428 1428 1428 1429
1446 1445 1444 1441 1440 1439 1438 1436 1434 1432 1431 1429 1428 1427 1427 1426 1426 1425 1425 1425 1425 1425 1425 1425 1425 1425 1425 1425 1424 1425 1425 1424 1424 1424 1424 1424 1425 1425 1425 1424 1425 1425 1426 1426